Weather Roundup
Issued by NWS Chicago, IL

Home | Current Version | Previous Version | Graphics & Text | Print | Product List | Glossary On
Versions: 1 2 3 4 5 6 7 8 9 10 11 12 13 14 15 16 17 18 19 20 21 22 23 24 25 26 27 28 29 30 31 32 33 34 35 36 37 38 39 40 41 42 43 44 45 46 47 48 49 50
000
NZUS59 KLOT 300610
HRRLOT

CHICAGO AREA WEATHER ROUNDUP
NATIONAL WEATHER SERVICE CHICAGO/ROMEOVILLE IL
1200 AM CST FRI JAN 30 2015

NOTE: "FAIR" INDICATES FEW OR NO CLOUDS BELOW 12,000 FEET WITH NO
SIGNIFICANT WEATHER AND/OR OBSTRUCTIONS TO VISIBILITY.

* THESE STATIONS ARE NOT UNDER NWS QUALITY CONTROL. THEY ALSO MAY NOT
  REPORT WEATHER SUCH AS PRECIPITATION OR FOG.

ILZ005-006-012>014-019>023-300700-
NORTHEAST ILLINOIS

CITY           SKY/WX    TMP DP  RH WIND       PRES   REMARKS
OHARE          CLOUDY    29  22  75 N15       30.31R WCI  18
6HR MIN TEMP:  29; 6HR MAX TEMP:  34; 6HR PCP: TRACE;

MIDWAY         FLURRIES  32  23  69 N14       30.31R WCI  22
6HR MIN TEMP:  32; 6HR MAX TEMP:  37; 6HR PCP: TRACE;

AURORA         CLOUDY    30  17  58 N18       30.33R WCI  18
6HR MIN TEMP:  30; 6HR MAX TEMP:  35;

LANSING*       FLURRIES  31  24  74 N15G25    30.30R WCI  20
JOLIET*        CLOUDY    32  17  54 N8G20     30.32R WCI  25
WAUKEGAN       CLOUDY    27  13  55 NW13G22   30.31R WCI  16
6HR MIN TEMP:  27; 6HR MAX TEMP:  34;

DUPAGE AIRPORT PTCLDY    29  16  58 N15G29    30.31R WCI  18
6HR MIN TEMP:  29; 6HR MAX TEMP:  34;

WHEELING       CLOUDY    29  18  63 N13       30.33R WCI  19
6HR MIN TEMP:  29; 6HR MAX TEMP:  35; 6HR PCP: TRACE;

KANKAKEE*      CLOUDY    33  22  64 NW13G20   30.30S WCI  24
MORRIS*        CLOUDY    32  22  68 N8G18     30.32R WCI  25
LEWIS AIRPORT* CLOUDY    31  16  53 N20G25    30.31R WCI  19
NORTHERLY IS     N/A     31  21  66 N17         N/A  WCI  20
$$

WIZ051-052-058>065-066-070>072-300700-
SOUTHEAST WISCONSIN

CITY           SKY/WX    TMP DP  RH WIND       PRES   REMARKS
MILWAUKEE      MOCLDY    26   8  46 N18G28    30.33R WCI  13
6HR MIN TEMP:  26; 6HR MAX TEMP:  35; 6HR PCP: TRACE;

KENOSHA*       CLOUDY    27  12  53 N12G21    30.32R WCI  17
RACINE*        CLOUDY    26   9  48 N14G26    30.34R WCI  14
BURLINGTON     CLOUDY    24  12  58 N13G20    30.34R WCI  13
WAUKESHA       CLOUDY    23  10  58 N9        30.35R WCI  13
WEST BEND      CLOUDY    25  10  54 NW8       30.34R WCI  16
$$

INZ001>003-010>013-019-020-300700-
NORTHWEST INDIANA

CITY           SKY/WX    TMP DP  RH WIND       PRES   REMARKS
GARY*          CLOUDY    32  22  66 N21G28    30.31R WCI  20
6HR MIN TEMP:  32; 6HR MAX TEMP:  37;

MICHIGAN CITY* NOT AVBL
RENSSELAER*    NOT AVBL
VALPARAISO     LGT SNOW  30  25  81 N13G21    30.26R WCI  20
$$

LMZ740>746-300700-
SOUTHERN LAKE MICHIGAN

STATION/POSITION TIME  SKY/WX   TEMP WIND        PRES    VSBY
                                AIR  DIR/SP/G
                 (UTC)          (F)  (DEG/KT/KT) (MB)    (MI)
HARRISON CRIB    0600            30  350/ 24/ 27   N/A
BURNHAM HARBOR   0600            30  360/ 15/ 23   N/A
CALUMET HARBOR   0600            31  330/ 17/ 25   N/A
BURNS HARBOR     NOT AVBL
MICHIGAN CITY    0600            30  340/ 30/ 36   N/A
$$

ABBREVIATIONS USED IN REMARKS
   TC - TEMPERATURE IN CELSIUS
  WCI - WIND CHILL INDEX
   HX - HEAT INDEX
  VSB - VISIBILITY
$$



USA.gov is the U.S. government's official web portal to all federal, state and local government web resources and services.